Starlink 6327

operational
NORAD ID: 56522 Int'l Des: 2023-065 Owner: SPXS Country: US Constellation: starlink
LEOCIRCULAR

Starlink 6327について

説明を読み込み中...

リアルタイム位置

3D地球を読み込み中...

次回通過

高度履歴

Altitude vs Time

uPlot chart will show altitude changes over time

軌道要素

1 56522U 23065V 25353.83361235 .00001840 00000-0 15128-3 0 9998
2 56522 43.0042 284.1376 0001399 263.9269 96.1414 15.02526637144613
Epoch: Dec 19, 2025 • Age: 11 hours

現在のステータス

高度 571.5 km
速度 7.58 km/s
衛星直下点 -43.13°S, 3.61°E
打ち上げ日 May 14, 2023
運用期間 2.6 years
タイプ internet

技術仕様

分類 Payload
質量 305.00 kg
乾燥質量 290.00 kg
総質量 305.00 kg
長さ 0.20 m
直径 2.80 m
スパン 9.00 m
形状 Box + pan
製造者 SPXS
バスタイプ Starlink
フェーズステータス In Orbit
所有者/国 SPXS/US

大規模コンステレーション

Loading constellations...